Date,TemperatureHighF,TemperatureAvgF,TemperatureLowF,DewpointHighF,DewpointAvgF,DewpointLowF,HumidityHigh,HumidityAvg,HumidityLow,PressureMaxIn,PressureMinIn,WindSpeedMaxMPH,WindSpeedAvgMPH,GustSpeedMaxMPH,PrecipitationSumIn
2013-4-1,59,46,36,53,34,15,95,68,35,29.89,29.52,24,6,26,0.02
2013-4-2,43,37,30,20,15,11,66,42,29,30.04,29.83,23,6,27,0.00
2013-4-3,44,38,34,20,17,15,59,43,32,30.31,29.97,27,8,30,0.00
2013-4-4,59,46,33,27,22,17,60,41,25,30.31,29.85,18,6,18,0.00
2013-4-5,60,49,41,27,24,12,55,41,26,30.17,29.70,27,7,27,0.00
2013-4-6,52,41,34,26,14,8,60,37,21,30.24,29.95,19,6,21,0.00
2013-4-7,64,52,35,43,32,15,75,49,25,30.20,29.87,27,8,31,0.00
2013-4-8,65,56,47,44,40,37,78,56,40,30.05,29.80,22,5,23,0.00
2013-4-9,72,63,57,52,46,42,67,54,39,29.98,29.80,20,6,20,0.23
2013-4-10,64,56,51,54,50,42,94,82,58,29.97,29.76,14,5,19,0.38
2013-4-11,51,45,37,49,35,23,93,70,41,30.09,29.82,23,7,23,0.11
2013-4-12,45,41,37,44,39,33,95,92,85,30.07,29.72,10,3,11,0.49
2013-4-13,57,49,41,49,41,37,94,76,53,29.95,29.76,10,2,11,0.01
2013-4-14,52,43,34,44,31,26,89,67,40,30.29,29.88,19,3,21,0.00
2013-4-15,66,55,34,39,34,26,84,49,35,30.31,30.17,19,5,20,0.00
2013-4-16,66,59,49,59,48,31,89,68,50,30.29,30.00,20,7,23,0.11
2013-4-17,68,57,48,56,39,33,89,53,31,30.29,30.09,19,5,21,0.11
2013-4-18,68,56,40,52,41,33,84,62,35,30.29,29.86,21,7,24,0.00
2013-4-19,77,65,48,64,58,44,91,80,63,29.99,29.50,26,8,28,0.60
2013-4-20,59,50,42,49,35,20,93,63,32,30.48,29.67,21,6,24,0.53
2013-4-21,54,44,37,26,22,18,58,43,28,30.62,30.29,25,6,25,0.00
2013-4-22,63,49,34,34,28,21,74,48,26,30.64,30.39,16,3,17,0.00
2013-4-23,57,47,37,42,36,28,81,67,57,30.47,29.99,8,2,10,0.00
2013-4-24,78,60,37,53,47,33,89,65,37,30.07,29.67,26,5,31,0.08
2013-4-25,63,53,42,54,33,28,85,50,29,30.34,29.73,21,6,22,0.08
2013-4-26,63,51,37,40,33,28,84,54,33,30.40,30.21,20,4,22,0.00
2013-4-27,70,54,36,41,33,28,80,49,25,30.40,30.21,14,2,16,0.00
2013-4-28,78,61,41,43,37,31,80,45,25,30.25,30.07,14,4,17,0.00
2013-4-29,63,58,53,53,47,32,92,69,36,30.22,30.13,17,4,17,0.05
2013-4-30,75,63,52,52,43,29,93,54,26,30.37,30.16,14,4,16,0.01